Weather in San Severo

Italy     41°41′33″N   15°22′45″E
В апреле 2022 года жителям России запретили посещать сайт meteo.paraplan.net по решению Генеральной прокуратуры. Аудитория сайта уменьшилась в 10 раз. Владельцы сайта не видят смысла в поддержке погодного сервера в таких условиях. Сайт будет закрыт в октябре.
temp.,
°C
wind,
m/s
gust,
m/s
humid.,
%
clouds,
%
prec.,
mm/h
press.,
hPa
HPBL,
m
29 september, thu
thu2923:00+19s5870100 0.0 1003277
02:00+19ssw51167100 0.0 1003687
05:00+18ssw51070100 0.0 1003459
08:00+18s357110 0.0 1004269
11:00+23sw7104558 0.0 10051117
14:00+24ssw8104335 0.0 10041406
17:00+24ssw71047100 0.0 10041433
20:00+21s51062100 0.0 1006791
30 september, fri
fri3023:00+20s4966100 0.0 1007559
02:00+19s6127270 0.0 1008503
05:00+18sse5977100 0.0 1009287
08:00+19sse5106788 0.0 1010510
11:00+24ssw71047100 0.0 10121450
14:00+26ssw7936100 0.0 10121521
17:00+27s58348 0.0 10121822
20:00+22ese334774 0.0 101345
1 october, sat
sat123:00+20se4866100 0.0 1014160
02:00+20se4672100 0.0 1015119
05:00+19sse4768100 0.0 1016128
08:00+19se5970100 0.0 1016261
11:00+19se71079100 0.1 1017390
14:00+19se6981100 0.4 1016422
17:00+21sse696952 0.8 1014775
20:00+19sw24720 0.9 101485
2 october, sun
sun223:00+17nnw398427 1.6 1016275
02:00+16nw35790 1.9 101893
05:00+16nne11811 0.0 101913
08:00+16nnw257963 0.1 1021220
11:00+20nnw78615 0.3 10231354
14:00+22nnw67510 0.3 10221386
17:00+20nnw44545 0.0 1022940
20:00+17nne22679 0.0 102241
3 october, mon
mon323:00+16nne126514 0.0 102217
02:00+15ene11620 0.0 102011
05:00+15nne22811 0.0 102115
08:00+16nne1180100 0.0 102152
11:00+21wnw01555 0.0 1020995
14:00+23w11414 0.0 10181460
17:00+22ne224291 0.0 1017828
20:00+19sw1257100 0.0 101785